Location: Kailua
(21.4020°N, 157.7390°W)
Time: 18:24:00
(UTC-10:00)

Daily predictions for brighter satellites

Satellite Brightness Start Highest point End
(mag) Time Altitude Azimuth Time Altitude Azimuth Time Altitude Azimuth
Cosmos 1634 Rocket 4.1 19:06:52 10° S 19:13:00 59° E 19:19:11 10° NNE
Cosmos 2227 4.4 19:09:57 10° N 19:15:30 53° ENE 19:20:59 10° SSE
Tiangong 1 2.2 19:15:13 10° S 19:17:27 21° SE 19:19:40 10° E
Cosmos 1892 2.8 19:16:03 10° N 19:19:52 84° W 19:23:42 10° S
Cosmos 2242 Rocket 3.8 19:16:57 10° SSE 19:21:18 49° E 19:25:37 10° NNE
Palapa 6 Rocket 4.4 19:16:49 10° SW 19:22:54 52° SSE 19:30:10 10° E
Cosmos 1092 Rocket 4.2 19:17:11 10° N 19:23:24 56° E 19:29:33 10° SSE
Cosmos 1408 3.9 19:24:58 10° NNE 19:27:44 20° E 19:30:28 10° SE
DELTA 2 R/B (1) 3.8 19:27:37 10° WNW 19:33:12 73° SW 19:38:43 10° SE
Cosmos 1825 3.3 19:30:26 10° NNE 19:33:36 25° E 19:36:42 10° SE
Intercosmos 25 Rocket 3.1 19:32:06 10° SSE 19:35:07 47° E 19:38:28 10° NNE
H-2A R/B 3.5 19:31:35 10° SE 19:35:08 34° ENE 19:38:38 10° N
Cosmos 2263 Rocket 3.5 19:31:31 10° NNE 19:35:46 22° ENE 19:39:10 13° ESE
GPS 2-17 Rocket1 4.0 19:32:20 10° W 19:36:23 34° SSW 19:39:54 12° SE
GRACE-1 3.7 19:34:42 10° N 19:37:25 66° E 19:40:05 10° S
GRACE-2 3.7 19:35:04 10° N 19:37:46 65° E 19:40:26 10° S
Sakura Rocket 4.2 19:34:53 10° WNW 19:38:06 29° N 19:41:25 10° NE
Cosmos 2322 Rocket 4.3 19:35:50 10° SW 19:40:41 30° WNW 19:45:35 10° N
Intelsat 5-1 Rocket 1.5 19:39:27 10° W 19:44:34 80° N 19:46:37 16° ENE
NOSS 3-1 (C) 3.9 19:41:05 10° S 19:45:53 31° ESE 19:50:54 10° NE
DASH 3.1 19:38:24 10° WNW 19:46:15 56° N 19:48:27 17° E
Cosmos 2279 Rocket 4.0 19:40:36 10° S 19:46:46 64° E 19:52:54 10° NNE
Cosmos 2360 Rocket 2.2 19:41:09 10° SSW 19:46:47 86° WNW 19:52:27 10° NNE
Cosmos 2237 4.4 19:41:38 10° S 19:47:08 49° ESE 19:52:38 10° NNE
Resurs 01 Rocket 2.1 19:43:29 10° SE 19:47:40 42° ENE 19:51:51 10° N
USA 229 DEB 4.0 19:46:29 10° SSW 19:53:14 73° WNW 20:00:05 10° NNE
USA 229 3.9 19:46:35 10° SSW 19:53:20 74° WNW 20:00:12 10° NNE
Cosmos 1655 Rocket 4.4 19:48:34 10° NNE 19:54:35 44° E 20:00:11 12° SSE
Cosmos 2195 Rocket 4.4 19:48:46 10° N 19:54:53 68° E 20:01:02 10° SSE
COSMOS 2428 3.0 19:51:35 10° S 19:56:55 44° ESE 20:02:17 10° NE
ATLAS 5 CENTAUR R/B 3.6 19:57:01 10° N 20:02:12 26° ENE 20:04:48 21° E
Cosmos 1627 Rocket 4.4 19:56:45 10° N 20:02:54 79° E 20:09:00 10° S
NOSS 3-1 (A) 3.9 19:59:00 10° S 20:03:48 30° ESE 20:08:48 10° NE
SJ-6B 4.3 20:02:42 10° SSW 20:06:21 37° W 20:10:05 10° NNW
CZ-2D R/B 3.2 20:06:06 24° SSE 20:08:18 64° ENE 20:12:08 10° N
Cosmos 1733 Rocket 3.1 20:04:11 10° N 20:08:33 55° E 20:10:56 25° SSE
Cosmos 1862 Rocket 4.0 20:05:29 10° SSW 20:09:53 65° W 20:14:20 10° N
Cosmos 2322 4.3 20:04:19 10° SSW 20:09:56 61° WNW 20:15:34 10° N
Atlas Centaur 2 3.6 20:09:18 10° WNW 20:14:55 38° N 20:20:43 14° ENE
TRAILBLAZER 4.5 20:17:03 10° SSW 20:21:34 88° ESE 20:26:07 10° NNE
USA 186 2.2 20:22:41 42° N 20:22:41 42° N 20:24:47 10° N
Spot 2 Rocket 3.6 20:19:22 15° S 20:23:35 78° WSW 20:28:40 10° NNW
Meteor 2-10 Rocket 3.8 20:18:18 10° S 20:24:06 85° W 20:29:55 10° N
Lacrosse 4 Rocket 2.7 20:25:35 10° NW 20:29:42 39° WSW 20:32:29 18° SSW
Cosmos 968 Rocket 4.0 20:25:41 10° N 20:30:32 39° ENE 20:30:41 39° ENE
ALOS 4.5 20:27:07 10° SSW 20:30:50 23° W 20:34:33 10° NW
Cosmos 1703 Rocket 3.4 20:29:49 46° SSE 20:31:02 71° E 20:35:25 10° N
ATLAS CENTAUR R/B 4.4 20:26:57 10° WNW 20:31:19 36° SW 20:42:23 10° SSE
Cosmos 2333 4.1 20:26:37 10° SSW 20:32:18 88° ESE 20:38:03 10° NNE
Helios 1B rocket 3.0 20:28:22 10° N 20:32:23 58° WNW 20:36:25 10° SSW
SWIFT 2.8 20:31:15 10° WSW 20:34:48 47° SSW 20:34:48 47° SSW
Cosmos 2333 Rocket 2.9 20:37:21 35° ENE 20:37:21 35° ENE 20:41:11 10° NE
Meteor 1-29 3.4 20:33:45 10° N 20:37:07 58° WNW 20:37:40 50° WSW
Resurs 1-3 4.4 20:34:47 20° SSW 20:37:33 48° W 20:41:46 10° NNW
Envisat 2.8 20:43:32 65° ESE 20:43:57 68° ENE 20:48:59 10° N
Cosmos 2219 Rocket 2.0 20:45:55 34° S 20:48:23 76° ESE 20:53:58 10° NNE
Blok-L 4.1 20:43:54 10° NNW 20:51:42 74° ENE 20:52:13 69° E
Tiangong 1 3.9 20:50:59 10° W 20:52:21 17° NW 20:52:21 17° NW
ERS-1 Rocket 4.3 21:01:58 28° NNE 21:01:58 28° NNE 21:04:37 10° N
SEDSat Delta rocket 4.3 20:56:49 10° NW 21:01:35 40° NNE 21:01:53 39° NNE
Cosmos 2221 Rocket 4.4 21:06:17 49° NW 21:06:17 49° NW 21:09:57 10° N
NOSS 0 Rocket 4.1 21:11:42 60° NNE 21:11:42 60° NNE 21:16:39 10° NNE
Palapa 6 Rocket 4.2 21:05:05 10° W 21:12:13 89° SSE 21:13:11 71° E
Cosmos 1867 3.8 21:08:28 10° NNW 21:13:04 64° NNW 21:13:04 64° NNW
Maqsat-H 4.2 21:10:40 10° SW 21:50:00 - ESE 21:13:31 26° SSW
Milstar 3 2.6 21:10:59 10° WNW 21:18:46 89° NNE 21:18:57 85° E
Cosmos 2263 Rocket 3.6 21:14:43 10° NW 21:19:33 31° WSW 21:20:55 27° SW
Cosmos 2266 Rocket 4.3 21:23:52 10° NNW 21:30:09 64° W 21:30:12 64° W
ATLAS 5 CENTAUR R/B 3.5 21:41:01 10° NW 21:46:24 39° W 21:46:24 39° W
Centaur AC-42 3.9 21:50:43 10° W 21:57:21 34° WSW 21:57:21 34° WSW
Atlas Centaur 2 3.6 21:58:16 10° WNW 22:03:20 47° NNW 22:03:20 47° NNW
Cosmos 2237 Rocket 4.3 22:13:43 21° NNW 22:13:43 21° NNW 22:16:01 10° N
CZ-4C R/B 4.3 22:29:04 10° NNW 22:32:41 30° N 22:32:41 30° N
